Regional Weather Roundup
Issued by NWS Northern Indiana

Home | Current Version | Previous Version | Text Only | Print | Product List | Glossary Off
Versions: 1 2 3 4 5 6 7 8 9 10 11 12 13 14 15 16 17 18 19 20 21 22 23 24 25 26 27 28 29 30 31 32 33 34 35 36 37 38 39 40 41 42 43 44 45 46 47 48 49 50

000
ASUS43 KIWX 310010
RWRIWX

KIWX WEATHER ROUNDUP
NATIONAL WEATHER SERVICE NORTHERN INDIANA
800 PM EDT THU JUL 30 2015

NOTE: "FAIR" INDICATES FEW OR NO CLOUDS BELOW 12,000 FEET WITH NO
SIGNIFICANT WEATHER AND/OR OBSTRUCTIONS TO VISIBILITY.

* THESE STATIONS ARE NOT UNDER NWS QUALITY CONTROL. THEY ALSO MAY NOT
  REPORT WEATHER SUCH AS PRECIPITATION OR FOG.

INZ001>027-310100-
NORTHERN INDIANA

CITY           SKY/WX    TMP DP  RH WIND       PRES   REMARKS
GARY*          MOSUNNY   86  52  30 W12G25    30.00F
VALPARAISO     SUNNY     82  55  39 W7        30.01F
6HR MIN TEMP:  82; 6HR MAX TEMP:  87;

MICHIGAN CITY* SUNNY     81  54  39 CALM      30.00F
LAPORTE*       SUNNY     83  58  41 CALM      30.01F
6HR MIN TEMP:  83; 6HR MAX TEMP:  86;

KNOX*          SUNNY     81  59  47 CALM      30.00F
SOUTH BEND     SUNNY     82  58  43 W6        30.01F
6HR MIN TEMP:  82; 6HR MAX TEMP:  86;

ELKHART*       SUNNY     82  54  36 W7        30.00F
GOSHEN         SUNNY     78  60  53 W7        30.00F
6HR MIN TEMP:  78; 6HR MAX TEMP:  83;

MONTICELLO*    SUNNY     81  58  45 W5        30.01F
6HR MIN TEMP:  81; 6HR MAX TEMP:  85;

LOGANSPORT*    SUNNY     79  54  41 W5        30.03S
ROCHESTER*     SUNNY     82  57  42 W5        30.02F
WARSAW*        SUNNY     81  57  44 W3        30.01F
ANGOLA*        CLEAR     81  59  47 W6        30.00F
FORT WAYNE     CLEAR     81  53  37 W6        30.02F
6HR MIN TEMP:  81; 6HR MAX TEMP:  85;

HUNTINGTON*    CLEAR     79  55  43 CALM      30.02S
6HR MIN TEMP:  79; 6HR MAX TEMP:  83;

PERU/GRISSOM   SUNNY     82  59  45 W8        30.01F
6HR MIN TEMP:  82; 6HR MAX TEMP:  86;

MARION*        PTCLDY    79  59  49 CALM      30.03F
6HR MIN TEMP:  52; 6HR MAX TEMP:  89;


$$
INZ028>050-310100-
CENTRAL INDIANA

CITY           SKY/WX    TMP DP  RH WIND       PRES   REMARKS
LAFAYETTE      SUNNY     80  61  52 W6        30.02F
6HR MIN TEMP:  80; 6HR MAX TEMP:  85;

KOKOMO*        SUNNY     82  59  44 W6        30.03S
6HR MIN TEMP:  82; 6HR MAX TEMP:  86;

MUNCIE*        CLEAR     78  59  51 NW7       30.03F
6HR MIN TEMP:  78; 6HR MAX TEMP:  83;

INDIANAPOLIS   MOSUNNY   82  56  40 NW9       30.04F
6HR MIN TEMP:  82; 6HR MAX TEMP:  86;


$$
MIZ043>046-050>051-056>058-064>065-071>073-077>080-310100-
SOUTHWEST LOWER MICHIGAN

CITY           SKY/WX    TMP DP  RH WIND       PRES   REMARKS
BATTLE CREEK   SUNNY     80  58  46 W7        29.99F
6HR MIN TEMP:  80; 6HR MAX TEMP:  85;

BENTON HARBOR  SUNNY     80  60  50 W9        29.98F
6HR MIN TEMP:  80; 6HR MAX TEMP:  84;

COLDWATER*     CLEAR     78  55  44 W7        29.99F
6HR MIN TEMP:  78; 6HR MAX TEMP:  83;

HILLSDALE*     CLEAR     79  56  44 W6        30.00F
6HR MIN TEMP:  79; 6HR MAX TEMP:  84;

HOLLAND        SUNNY     79  60  52 W8        29.97F
6HR MIN TEMP:  79; 6HR MAX TEMP:  83;

GRAND RAPIDS   MOSUNNY   82  55  39 W18       29.96F
6HR MIN TEMP:  82; 6HR MAX TEMP:  85;

KALAMAZOO      SUNNY     81  56  42 W10       29.98F
6HR MIN TEMP:  81; 6HR MAX TEMP:  84;

STURGIS*       SUNNY     79  59  50 W6        29.99F
THREE RIVERS*  FAIR      81  57  44 W5        30.00F
6HR MIN TEMP:  81; 6HR MAX TEMP:  84;


$$
OHZ001>008-015>018-024>025-310100-
NORTHWEST OHIO

CITY           SKY/WX    TMP DP  RH WIND       PRES   REMARKS
WAUSEON*       FAIR      79  59  50 NW9       29.99R
DEFIANCE       CLEAR     81  55  40 NW13G20   30.00S
6HR MIN TEMP:  81; 6HR MAX TEMP:  86;

FINDLAY        CLEAR     81  55  40 NW10      29.98S
6HR MIN TEMP:  81; 6HR MAX TEMP:  86;

TOLEDO EXPRESS CLEAR     80  57  45 W8        29.97S
6HR MIN TEMP:  80; 6HR MAX TEMP:  84;

TOLEDO METCALF CLEAR     81  55  40 W14       29.97S
6HR MIN TEMP:  81; 6HR MAX TEMP:  86;

LIMA           CLEAR     79  54  41 W9        30.01S
6HR MIN TEMP:  79; 6HR MAX TEMP:  84;


$$
AND FOR LAKE MICHIGAN COASTAL AND OPEN LAKE BUOY OBSERVATIONS

STATION/POSITION TEMP    WIND        PRES    VSBY  WAVE
                 AIR SEA DIR/SP/G                  HT/PER
                 (F)     (DEG/KT/KT) (MB)    (MI)  (FT/S)
CALUMET HARBOR    86     290/  7/ 14   N/A
MICHIGAN CITY     80     210/  3/  3   N/A
BURNS HARBOR      85      60/  3/  3 1016.3F
SAINT JOSEPH      78     200/  7/  9 1016.3S
4 MI NW BRIDGMAN  76 74  250/  8/  8   N/A           1/ 3
MICHIGAN CITY     79 76  220/  2/  4   N/A           1
MICHIGAN CITY CG  85 75  270/  2       N/A       6   1

$$
&&



USA.gov is the U.S. government's official web portal to all federal, state and local government web resources and services.